Lid_Strength_Index
4 4 4 4 4 4 4 4 4 4 3 4 4 4 4 3 3 3 7 6 5 -0 -1 1 2 2 2 4 4 4 9 13 11 10 9 6 7 5 4 5 4 4 4 3 1
4 4 4 4 4 4 4 4 4 4 4 4 4 4 4 3 4 6 2 2 2 -2 2 4 5 4 4 5 5 6 9 11 8 8 8 6 6 6 6 6 6 4 3 2 1
4 4 4 4 4 4 4 4 4 4 4 4 4 4 4 3 6 7 -1 0 0 -2 2 4 5 5 5 4 6 6 10 8 8 6 5 7 7 5 6 7 5 6 4 3 2
4 4 4 4 4 4 4 4 4 4 4 4 4 4 4 3 10 1 -1 -1 -2 0 2 5 6 6 6 7 5 8 7 6 6 6 6 7 5 6 6 6 3 3 3 3 3
4 4 5 5 4 4 4 4 4 4 4 4 4 4 3 6 7 -0 -2 -2 -0 2 4 5 7 7 7 6 6 7 6 6 5 6 6 5 7 7 7 4 3 3 3 3 3
5 5 5 5 5 4 4 5 5 4 4 4 3 4 4 9 3 -1 1 -0 1 3 4 4 6 5 5 6 6 5 6 6 6 6 6 8 7 6 7 3 4 3 3 3 3
5 5 5 5 5 5 5 5 5 4 4 4 4 2 5 7 2 -1 1 0 1 2 5 4 4 4 4 6 6 5 8 7 7 7 8 6 10 9 6 4 4 4 3 3 3
5 5 5 5 5 5 5 5 5 4 4 3 3 3 8 5 -1 0 1 1 1 2 4 4 3 3 4 4 6 7 7 11 8 8 8 8 13 8 5 5 5 4 4 4 3
5 5 5 5 5 5 5 5 4 4 3 2 2 4 8 3 2 2 2 4 3 4 4 5 4 4 4 7 9 8 11 11 11 7 8 8 12 8 5 5 6 5 4 4 3
5 4 4 4 4 5 5 4 3 2 2 1 2 5 5 5 2 2 2 3 4 4 6 6 5 6 6 7 12 11 10 10 11 9 8 10 10 8 7 7 6 5 5 4 4
4 4 4 4 5 4 4 2 3 4 3 4 5 5 3 2 1 2 2 3 4 4 7 6 7 9 7 6 7 8 9 10 9 7 9 10 10 8 7 7 7 7 6 4 4
4 4 3 4 5 5 4 4 3 3 5 3 3 3 2 1 4 3 2 5 6 7 5 6 8 6 6 7 8 8 9 10 9 8 9 9 10 8 7 7 7 7 5 4 4
4 3 4 5 5 5 3 3 1 1 5 4 3 3 3 2 4 4 3 4 6 6 6 7 6 6 6 7 8 8 8 10 10 9 8 9 12 10 8 6 6 6 5 5 4
4 3 5 5 6 2 3 1 -0 1 7 6 5 4 3 2 5 2 2 4 6 6 6 6 5 6 7 7 7 9 8 8 10 10 14 9 16 12 9 9 7 6 7 5 4
4 4 5 5 3 3 2 -0 0 2 13 6 5 2 2 4 4 4 1 3 6 6 6 8 7 7 7 7 6 8 7 8 8 9 10 11 12 11 9 11 9 7 6 5 5
4 5 5 4 2 1 -0 1 2 8 14 8 5 5 5 5 4 3 4 3 3 5 5 6 4 5 6 5 6 6 7 7 8 9 12 10 11 12 11 10 9 7 6 5 5
5 6 5 3 3 -1 -0 2 9 11 6 8 7 6 6 6 6 5 6 6 7 9 9 7 6 5 5 7 6 6 8 12 13 13 13 9 11 9 8 7 7 7 6 5 4
6 6 4 2 -0 1 2 6 11 9 8 6 6 6 7 6 6 6 6 8 6 6 8 9 10 6 5 6 7 8 8 11 15 14 12 10 13 9 7 6 5 5 5 4 4
6 2 2 1 1 1 4 8 9 8 7 7 6 8 8 7 7 7 7 7 6 6 8 9 9 5 5 5 5 7 9 6 10 9 11 11 9 9 7 7 6 6 5 5 5
1 3 2 -0 1 1 6 9 7 6 6 6 8 7 9 8 8 7 8 6 6 5 5 7 9 6 6 5 5 6 6 9 9 14 15 12 12 10 10 8 7 7 6 5 5
2 4 1 0 0 4 7 7 6 5 5 6 8 8 8 8 7 8 8 6 6 6 5 6 7 8 6 7 7 7 8 8 7 9 12 13 12 8 8 7 7 6 5 5 5
3 5 0 -0 5 4 6 6 8 5 4 5 5 6 7 7 8 8 8 7 5 5 7 6 7 9 8 6 5 6 7 7 10 11 10 10 13 7 7 7 6 6 5 4 4
2 3 0 1 6 6 5 6 5 5 5 6 6 6 6 7 9 7 7 5 5 5 6 6 8 11 10 7 6 7 7 6 7 7 10 11 10 7 7 7 6 6 5 5 4
3 6 3 2 3 5 6 6 6 4 5 5 6 5 6 7 6 8 7 6 5 5 5 5 7 8 11 10 7 9 8 7 7 9 9 9 9 9 8 8 7 6 6 5 5
2 5 4 6 5 4 5 6 7 7 5 5 6 6 7 8 7 8 6 6 6 6 5 5 8 8 7 7 8 8 8 8 8 7 9 8 8 6 7 7 7 6 6 6 6
4 4 3 4 5 5 7 6 6 6 6 6 6 6 6 7 7 8 7 6 6 5 5 5 8 8 9 8 8 8 8 8 8 8 8 8 8 7 6 6 7 6 6 6 5
1 1 4 7 5 5 5 6 6 5 5 5 5 5 6 6 4 4 4 5 5 6 7 7 7 9 10 8 8 10 8 8 8 8 8 10 9 7 7 8 7 7 6 6 5